Location: Alto Pass Reservoir
(37.5801°N, 89.3084°W)
Time: 19:37:13
(UTC+00:00)

Aureole 3 Rocket - Visible Passes

Search period start: 26 June 2022 00:00
Search period end: 06 July 2022 00:00
Orbit: 398 x 1736 km, 82.5° (Epoch: 26 June)

Date Brightness Start Highest point End Pass type
(mag) Time Alt. Az. Time Alt. Az. Time Alt. Az.
26 Jun 6.6 02:22:11 10° SW 02:29:45 29° WNW 02:35:52 10° NNW visible
28 Jun 6.9 02:22:10 10° SW 02:28:35 23° WNW 02:33:53 10° NNW visible
30 Jun 7.2 02:22:29 10° WSW 02:27:24 17° WNW 02:31:37 10° NW visible
02 Jul 7.4 02:23:29 10° W 02:26:12 12° WNW 02:28:41 10° NW visible
